Volver al catálogo

CZ-8 R/B

ActivoPO
NORAD 63177·ROCKET BODY·🇨🇳 China

Lanzado Mar 11, 2025 desde Wenchang Space Launch Site

Loading…

Próximos Pases (próximas 24 horas)

TLE

ActualizadoSource: Space-Track

Época: Sep 14, 2026, 14:07 UTC

1 63177U 25046U   26257.58876114  .00000235  00000-0  12331-3 0  9996
2 63177  88.9628 285.6866 0063078 158.5541 201.8308 14.09670170 87687

Sigue CZ-8 R/B en tiempo real con AllMySat

Download on the App Store